Tiempo cada hora Dabrowa

Hoy, 2 Agosto, Lunes

Tiempo Temperatura Precipitaciones Viento Presión Humedad
00:00 +15°C° 2.2 mm 4 mps 725 mmHg 97%
01:00 +15°C° 0 mm 5 mps 725 mmHg 96%
02:00 +15°C° 0.1 mm 5 mps 726 mmHg 96%
03:00 +14°C° 0.1 mm 4 mps 726 mmHg 95%
04:00 +14°C° 0.1 mm 4 mps 727 mmHg 94%
05:00 +14°C° 0 mm 4 mps 727 mmHg 92%
06:00 +14°C° 0 mm 4 mps 728 mmHg 91%
07:00 +14°C° 0 mm 4 mps 728 mmHg 91%
08:00 +15°C° 0.2 mm 5 mps 729 mmHg 86%
09:00 +16°C° 0.2 mm 5 mps 729 mmHg 81%
10:00 +17°C° 0.2 mm 6 mps 729 mmHg 76%
11:00 +19°C° 0.2 mm 5 mps 730 mmHg 70%
12:00 +20°C° 0.2 mm 5 mps 730 mmHg 64%
13:00 +21°C° 0.2 mm 5 mps 730 mmHg 58%
14:00 +21°C° 0.2 mm 5 mps 730 mmHg 60%
15:00 +21°C° 0.2 mm 5 mps 730 mmHg 62%
16:00 +20°C° 0.2 mm 4 mps 730 mmHg 64%
17:00 +19°C° 0.2 mm 4 mps 730 mmHg 70%
18:00 +18°C° 0.2 mm 3 mps 730 mmHg 76%
19:00 +17°C° 0.2 mm 2 mps 730 mmHg 82%
20:00 +16°C° 0 mm 2 mps 731 mmHg 84%
21:00 +15°C° 0 mm 2 mps 731 mmHg 85%
22:00 +14°C° 0 mm 2 mps 731 mmHg 87%
23:00 +14°C° 0 mm 2 mps 731 mmHg 87%

Mañana, 3 Agosto, Martes

Tiempo Temperatura Precipitaciones Viento Presión Humedad
00:00 +14°C° 0 mm 2 mps 732 mmHg 87%
01:00 +14°C° 0 mm 2 mps 732 mmHg 88%
02:00 +13°C° 0 mm 2 mps 732 mmHg 89%
03:00 +13°C° 0 mm 2 mps 732 mmHg 90%
04:00 +13°C° 0 mm 2 mps 732 mmHg 92%
05:00 +14°C° 0 mm 2 mps 733 mmHg 85%
06:00 +16°C° 0 mm 2 mps 733 mmHg 79%
07:00 +17°C° 0 mm 2 mps 733 mmHg 73%
08:00 +18°C° 0 mm 3 mps 733 mmHg 65%
09:00 +20°C° 0 mm 3 mps 733 mmHg 57%
10:00 +21°C° 0 mm 3 mps 733 mmHg 49%
11:00 +22°C° 0 mm 3 mps 733 mmHg 48%
12:00 +22°C° 0 mm 3 mps 733 mmHg 48%
13:00 +24°C° 0 mm 3 mps 733 mmHg 47%
14:00 +24°C° 0 mm 2 mps 733 mmHg 48%
15:00 +24°C° 0 mm 2 mps 733 mmHg 49%
16:00 +24°C° 0 mm 1 mps 732 mmHg 50%
17:00 +22°C° 0 mm 1 mps 732 mmHg 55%
18:00 +21°C° 0 mm 1 mps 732 mmHg 61%
19:00 +18°C° 0 mm 0 mps 732 mmHg 66%
20:00 +19°C° 0.5 mm 1 mps 732 mmHg 73%
21:00 +18°C° 0.5 mm 1 mps 732 mmHg 80%
22:00 +16°C° 0.5 mm 2 mps 732 mmHg 87%
23:00 +16°C° 0.1 mm 2 mps 732 mmHg 88%

Pasado mañana, 4 Agosto, Miércoles

Tiempo Temperatura Precipitaciones Viento Presión Humedad
00:00 +16°C° 0.1 mm 2 mps 732 mmHg 88%
01:00 +15°C° 0.1 mm 1 mps 732 mmHg 89%
02:00 +15°C° 0.3 mm 1 mps 732 mmHg 90%
03:00 +15°C° 0.3 mm 1 mps 732 mmHg 91%
04:00 +14°C° 0.3 mm 1 mps 732 mmHg 91%
05:00 +16°C° 0.1 mm 1 mps 732 mmHg 88%
06:00 +18°C° 0.1 mm 1 mps 732 mmHg 84%
07:00 +19°C° 0.1 mm 1 mps 732 mmHg 80%
08:00 +20°C° 0.1 mm 1 mps 732 mmHg 75%
09:00 +21°C° 0.1 mm 1 mps 733 mmHg 70%
10:00 +21°C° 0.1 mm 2 mps 733 mmHg 65%
11:00 +23°C° 0 mm 2 mps 732 mmHg 59%
12:00 +25°C° 0 mm 2 mps 732 mmHg 52%
13:00 +26°C° 0 mm 2 mps 732 mmHg 45%
14:00 +25°C° 0 mm 2 mps 732 mmHg 50%
15:00 +24°C° 0 mm 2 mps 732 mmHg 55%
16:00 +23°C° 0 mm 2 mps 732 mmHg 59%
17:00 +21°C° 0.8 mm 2 mps 732 mmHg 68%
18:00 +19°C° 0.8 mm 2 mps 732 mmHg 77%
19:00 +17°C° 0.8 mm 2 mps 732 mmHg 86%
20:00 +17°C° 0.2 mm 2 mps 732 mmHg 87%
21:00 +17°C° 0.2 mm 2 mps 732 mmHg 88%
22:00 +17°C° 0.2 mm 2 mps 732 mmHg 89%
23:00 +16°C° 0 mm 1 mps 731 mmHg 90%

5 Agosto, Jueves

Tiempo Temperatura Precipitaciones Viento Presión Humedad
00:00 +16°C° 0 mm 1 mps 731 mmHg 91%
01:00 +16°C° 0 mm 1 mps 731 mmHg 91%
02:00 +16°C° 0 mm 1 mps 731 mmHg 91%
03:00 +16°C° 0 mm 1 mps 731 mmHg 91%
04:00 +16°C° 0 mm 1 mps 730 mmHg 91%
05:00 +16°C° 0 mm 2 mps 730 mmHg 89%
06:00 +17°C° 0 mm 2 mps 730 mmHg 87%
07:00 +18°C° 0 mm 3 mps 730 mmHg 85%
08:00 +18°C° 0.1 mm 3 mps 730 mmHg 87%
09:00 +18°C° 0.1 mm 3 mps 729 mmHg 90%
10:00 +18°C° 0.1 mm 3 mps 729 mmHg 92%
11:00 +19°C° 0.1 mm 3 mps 729 mmHg 87%
12:00 +20°C° 0.1 mm 4 mps 729 mmHg 81%
13:00 +21°C° 0.1 mm 4 mps 728 mmHg 76%
14:00 +21°C° 0.2 mm 4 mps 728 mmHg 78%
15:00 +21°C° 0.2 mm 3 mps 727 mmHg 81%
16:00 +20°C° 0.2 mm 2 mps 726 mmHg 84%
17:00 +20°C° 2.3 mm 2 mps 726 mmHg 88%
18:00 +19°C° 2.3 mm 3 mps 725 mmHg 92%
19:00 +18°C° 2.3 mm 3 mps 725 mmHg 96%
20:00 +18°C° 1.6 mm 3 mps 724 mmHg 96%
21:00 +18°C° 1.6 mm 4 mps 723 mmHg 96%
22:00 +18°C° 1.6 mm 4 mps 722 mmHg 96%
23:00 +18°C° 0.6 mm 4 mps 722 mmHg 96%

6 Agosto, Viernes

Tiempo Temperatura Precipitaciones Viento Presión Humedad
00:00 +16°C° 0.6 mm 5 mps 721 mmHg 96%
01:00 +16°C° 0.6 mm 5 mps 720 mmHg 96%
02:00 +16°C° 1.3 mm 6 mps 720 mmHg 96%
03:00 +15°C° 1.3 mm 7 mps 721 mmHg 95%
04:00 +15°C° 1.3 mm 8 mps 721 mmHg 94%
05:00 +15°C° 1.5 mm 8 mps 721 mmHg 94%
06:00 +15°C° 1.5 mm 8 mps 721 mmHg 95%
07:00 +15°C° 1.5 mm 8 mps 722 mmHg 95%
08:00 +15°C° 1 mm 8 mps 722 mmHg 95%
09:00 +15°C° 1 mm 8 mps 723 mmHg 94%
10:00 +15°C° 1 mm 8 mps 724 mmHg 94%
11:00 +15°C° 0.2 mm 7 mps 724 mmHg 92%
12:00 +15°C° 0.2 mm 7 mps 725 mmHg 90%
13:00 +16°C° 0.2 mm 7 mps 725 mmHg 88%
14:00 +17°C° 0.2 mm 6 mps 726 mmHg 85%
15:00 +19°C° 0.2 mm 6 mps 726 mmHg 81%
16:00 +20°C° 0.2 mm 5 mps 726 mmHg 78%
17:00 +19°C° 0.2 mm 5 mps 726 mmHg 81%
18:00 +18°C° 0.2 mm 4 mps 726 mmHg 83%
19:00 +17°C° 0.2 mm 4 mps 727 mmHg 86%
20:00 +17°C° 0 mm 3 mps 727 mmHg 88%
21:00 +16°C° 0 mm 3 mps 727 mmHg 90%
22:00 +16°C° 0 mm 3 mps 728 mmHg 92%
23:00 +14°C° 0 mm 3 mps 728 mmHg 92%

7 Agosto, Sábado

Tiempo Temperatura Precipitaciones Viento Presión Humedad
00:00 +15°C° 0 mm 2 mps 728 mmHg 92%
01:00 +15°C° 0 mm 2 mps 728 mmHg 92%
02:00 +14°C° 0 mm 2 mps 728 mmHg 92%
03:00 +14°C° 0 mm 2 mps 729 mmHg 92%
04:00 +14°C° 0 mm 2 mps 729 mmHg 93%
05:00 +15°C° 0 mm 2 mps 729 mmHg 88%
06:00 +17°C° 0 mm 2 mps 729 mmHg 83%
07:00 +18°C° 0 mm 2 mps 730 mmHg 78%
08:00 +20°C° 0 mm 3 mps 730 mmHg 71%
09:00 +21°C° 0 mm 3 mps 730 mmHg 65%
10:00 +24°C° 0 mm 3 mps 731 mmHg 58%
11:00 +25°C° 0 mm 3 mps 731 mmHg 55%
12:00 +26°C° 0 mm 3 mps 731 mmHg 51%
13:00 +26°C° 0 mm 3 mps 731 mmHg 48%
14:00 +26°C° 0 mm 3 mps 731 mmHg 48%
15:00 +27°C° 0 mm 3 mps 731 mmHg 47%
16:00 +27°C° 0 mm 3 mps 731 mmHg 47%
17:00 +25°C° 0 mm 2 mps 731 mmHg 54%
18:00 +23°C° 0 mm 2 mps 731 mmHg 61%
19:00 +21°C° 0 mm 2 mps 731 mmHg 67%
20:00 +20°C° 0 mm 2 mps 731 mmHg 68%
21:00 +19°C° 0 mm 2 mps 731 mmHg 69%
22:00 +19°C° 0 mm 2 mps 731 mmHg 70%
23:00 +18°C° 0 mm 2 mps 731 mmHg 72%
Mostrar más

Necesitamos Su Consentimiento

Meteoprog y nuestros Proveedores de Servicios pueden almacenar y acceder a sus datos personales como cookies, identificadores de dispositivo u otras tecnologías similares de su dispositivo y procesar dichos datos para personalizar contenido y anuncios, además de ofrecer funciones de redes sociales y analizar el tráfico.

  • Almacenar y/o acceder a información en su dispositivo

    Se puede almacenar o acceder a cookies, identificadores de dispositivo u otra información de su dispositivo para los fines anteriormente indicados.

  • Anuncios y contenido personalizados, medición de anuncios y contenido, percepciones del público, y desarrollo de productos

    Los anuncios y el contenido pueden personalizarse en base a su perfil. Se pueden añadir más datos para personalizar mejor los anuncios y contenidos. Se puede medir el rendimiento de los anuncios y contenidos. Se puede obtener la percepción sobre el público que ha visto los anuncios y contenidos. Dichos datos pueden usarse para desarrollar o mejorar la experiencia del usuario, sistemas y software.

Al hacer clic en ‘Estoy De Acuerdo’ usted permitirá el uso de las cookies, identificadores de dispositivo, balizas web u otras tecnologías similares indicadas. Su configuración puede cambiarse desde el navegador de su dispositivo.

Para ciertos fines, los intereses legítimos pueden ser considerados por encima del consentimiento. Puede leer más sobre ello en nuestra Política de Privacidad y Cookies.